Probability
0 0 0 0 0 0 0 3 3 0 0 0 0 0 0 3 3 10 26 45 52 48 45 52 55 61 48 52 48 55 55 48 52 52 48 52 55 55 58 55 58 65 65
0 0 0 0 0 0 0 0 0 0 0 0 0 0 3 3 6 16 23 26 45 45 42 48 45 45 55 52 52 52 45 48 48 42 45 42 42 45 58 61 68 68 65
0 0 0 0 0 0 0 0 0 0 0 0 0 3 3 3 6 13 23 19 23 42 45 48 48 48 45 45 52 48 45 48 45 39 29 35 35 45 52 61 61 68 68
0 0 0 0 0 0 0 0 0 0 0 0 0 3 3 3 0 10 19 23 19 19 32 45 48 55 58 48 45 48 42 52 42 39 35 42 42 45 52 55 58 55 61
0 0 0 0 0 0 0 0 0 0 0 0 0 3 3 0 3 3 3 13 16 10 16 19 42 52 52 55 52 48 42 39 39 29 39 39 42 39 45 52 61 52 55
0 0 0 0 0 0 0 0 0 0 0 0 0 0 0 3 6 3 6 6 10 6 13 10 10 16 39 48 45 52 45 35 32 35 32 42 42 35 48 45 55 55 58
0 0 0 0 0 0 0 0 0 0 0 0 0 0 0 3 3 3 3 6 6 3 10 6 10 3 10 26 35 52 45 35 29 29 32 35 42 42 48 55 48 48 58
0 0 0 0 0 0 0 0 0 0 0 0 0 0 0 0 3 0 6 6 6 6 10 10 10 10 3 3 6 23 35 52 35 35 32 39 39 42 42 42 48 55 48
0 0 0 0 0 0 0 3 0 0 3 0 0 0 0 0 0 0 0 3 3 3 0 3 0 6 3 3 0 3 16 29 35 32 35 35 39 39 45 48 48 45 42
0 0 0 0 0 0 3 3 3 0 0 0 0 0 0 0 0 0 0 0 0 3 3 0 0 0 0 3 3 0 6 16 29 29 35 42 39 42 48 52 39 42 35
0 0 0 0 0 0 3 3 3 0 0 0 0 0 0 0 0 0 0 0 0 0 3 3 3 0 0 3 3 0 0 0 13 29 39 39 39 32 32 39 45 42 32
0 0 0 0 0 0 0 0 0 0 0 0 0 0 0 0 0 0 0 0 0 3 3 3 0 0 0 0 0 0 0 0 3 13 32 45 42 39 35 42 32 32 39
0 0 0 0 0 0 0 3 3 0 0 0 0 3 0 0 0 0 0 0 0 0 0 0 0 0 0 0 0 0 0 0 0 0 10 10 26 39 35 35 39 35 26
0 0 0 0 3 3 0 0 3 0 0 0 3 3 3 0 0 0 0 0 0 0 0 0 0 0 0 0 0 0 0 0 0 0 0 0 0 3 23 35 32 29 29
0 0 0 0 0 0 0 0 3 0 0 3 3 0 3 3 0 0 0 0 0 0 0 0 0 0 0 0 0 0 0 0 0 0 0 0 0 0 0 6 19 19 23
0 0 0 0 0 0 3 0 0 0 3 3 3 3 6 0 3 3 0 0 0 0 0 0 0 0 0 3 3 0 0 0 0 0 0 0 0 0 0 0 0 0 0
0 0 0 0 0 0 0 0 0 0 0 3 3 3 3 0 0 0 0 0 0 0 0 0 0 0 0 0 0 0 0 0 0 0 0 0 0 0 0 0 0 0 0
0 0 0 0 0 0 0 0 0 0 0 0 0 0 0 0 0 0 0 0 0 0 0 0 0 0 0 0 0 0 0 3 0 0 0 0 0 0 0 0 0 0 0
0 0 0 0 0 0 0 0 0 0 0 0 0 0 0 0 0 0 0 0 0 0 0 0 0 0 0 0 0 0 0 0 0 0 0 0 0 0 0 0 0 0 0
0 0 0 0 0 0 0 0 0 0 0 0 0 0 0 0 0 0 0 0 0 0 0 0 0 0 0 0 0 0 0 0 0 0 0 0 0 0 0 0 0 0 0
0 0 0 0 0 0 0 0 0 0 0 0 0 0 0 0 0 0 0 0 0 0 0 0 0 0 0 0 0 0 0 0 0 0 0 0 0 0 0 0 0 0 0
0 0 0 0 0 0 0 0 0 0 0 0 0 0 0 0 0 0 0 0 0 0 0 0 0 0 0 0 0 0 0 0 0 3 0 0 0 0 0 0 0 0 0
0 0 0 0 0 0 0 0 0 0 0 0 0 0 0 0 0 0 0 0 0 0 0 0 0 0 0 0 0 0 0 0 0 0 0 0 0 0 0 0 0 0 0
0 0 0 0 0 0 0 0 0 0 0 0 0 0 0 0 0 0 0 0 0 0 0 0 0 0 0 0 0 0 0 0 0 0 0 0 3 0 0 0 0 0 0
0 0 0 0 0 0 0 0 0 0 0 0 0 0 0 0 0 0 0 0 0 0 0 0 0 0 0 0 0 0 0 0 0 0 0 0 0 0 0 0 0 0 0
0 0 0 0 0 0 0 0 0 0 0 0 0 0 0 0 0 0 0 0 0 0 0 0 0 0 0 0 0 0 0 0 0 0 0 0 0 0 0 0 0 0 0
Height
5845 5843 5841 5839 5837 5835 5833 5832 5830 5829 5829 5829 5829 5830 5831 5832 5834 5836 5838 5840 5843 5845 5848 5850 5853 5855 5858 5860 5862 5864 5865 5867 5869 5870 5872 5875 5877 5879 5882 5885 5887 5890 5892
5843 5840 5838 5836 5834 5832 5830 5828 5827 5826 5825 5825 5826 5826 5827 5829 5830 5832 5834 5837 5839 5842 5845 5848 5850 5853 5856 5859 5861 5863 5865 5867 5868 5870 5872 5874 5876 5879 5881 5884 5887 5890 5893
5841 5839 5836 5834 5831 5829 5827 5825 5823 5822 5822 5821 5822 5822 5824 5825 5826 5828 5831 5833 5836 5839 5842 5845 5848 5851 5854 5856 5859 5861 5864 5865 5867 5869 5871 5873 5875 5878 5881 5884 5887 5890 5892
5839 5837 5834 5831 5829 5826 5824 5822 5820 5819 5818 5818 5818 5819 5820 5821 5823 5825 5827 5830 5833 5836 5839 5842 5845 5848 5851 5854 5857 5860 5862 5864 5866 5868 5870 5872 5873 5876 5880 5883 5886 5889 5892
5838 5835 5832 5829 5826 5824 5821 5819 5817 5816 5815 5814 5815 5815 5816 5817 5819 5821 5824 5826 5829 5832 5835 5838 5841 5845 5848 5852 5855 5857 5860 5862 5865 5867 5869 5871 5874 5876 5879 5882 5885 5888 5891
5836 5833 5830 5827 5824 5822 5819 5817 5814 5813 5812 5811 5811 5812 5813 5814 5815 5817 5820 5823 5825 5828 5831 5835 5838 5842 5845 5849 5852 5855 5858 5861 5863 5866 5868 5870 5873 5876 5878 5881 5884 5887 5889
5835 5832 5829 5826 5823 5820 5817 5814 5812 5810 5809 5809 5809 5809 5810 5811 5812 5814 5816 5819 5822 5825 5828 5831 5835 5838 5842 5846 5849 5852 5855 5858 5861 5863 5866 5869 5871 5874 5877 5879 5882 5884 5887
5834 5831 5828 5824 5821 5818 5815 5812 5810 5808 5807 5806 5806 5807 5807 5809 5809 5811 5813 5816 5819 5822 5824 5827 5831 5835 5839 5842 5845 5849 5852 5855 5858 5861 5864 5866 5869 5872 5874 5877 5879 5882 5885
5833 5829 5826 5823 5820 5817 5814 5811 5808 5806 5805 5805 5804 5805 5805 5806 5807 5809 5810 5812 5815 5818 5821 5824 5827 5831 5835 5839 5842 5845 5849 5852 5855 5858 5861 5864 5866 5869 5872 5875 5877 5880 5883
5832 5828 5825 5822 5819 5816 5813 5810 5807 5805 5804 5803 5803 5803 5804 5804 5805 5806 5808 5809 5811 5814 5817 5820 5824 5827 5831 5835 5838 5841 5845 5848 5851 5855 5858 5861 5864 5867 5869 5872 5875 5878 5880
5831 5828 5825 5821 5818 5815 5812 5810 5807 5805 5804 5803 5802 5802 5802 5802 5803 5804 5805 5807 5809 5811 5814 5817 5820 5824 5827 5831 5834 5838 5841 5844 5847 5851 5855 5858 5861 5864 5866 5869 5872 5875 5877
5830 5827 5824 5821 5818 5815 5812 5809 5807 5805 5803 5802 5802 5801 5801 5801 5801 5802 5803 5804 5806 5808 5811 5814 5817 5820 5824 5827 5830 5833 5836 5840 5843 5847 5851 5854 5857 5860 5863 5866 5869 5871 5874
5829 5826 5823 5820 5817 5815 5812 5809 5807 5805 5803 5802 5801 5800 5800 5800 5800 5800 5801 5802 5804 5806 5808 5811 5814 5817 5820 5823 5826 5829 5833 5836 5839 5843 5847 5850 5853 5856 5859 5862 5865 5867 5870
5828 5825 5823 5820 5817 5814 5812 5809 5807 5805 5803 5802 5801 5800 5799 5798 5798 5799 5799 5800 5802 5803 5805 5808 5810 5813 5816 5819 5822 5825 5829 5832 5836 5839 5842 5846 5849 5852 5855 5857 5860 5863 5865
5827 5824 5822 5819 5817 5814 5811 5809 5807 5805 5803 5801 5800 5799 5798 5797 5796 5797 5797 5798 5799 5800 5802 5804 5807 5809 5812 5815 5818 5821 5825 5828 5831 5835 5838 5841 5844 5847 5850 5853 5855 5858 5860
5825 5823 5821 5818 5816 5813 5811 5809 5807 5804 5802 5801 5799 5798 5797 5796 5795 5795 5795 5795 5796 5798 5799 5801 5803 5806 5808 5811 5814 5817 5821 5824 5827 5830 5833 5836 5839 5842 5845 5847 5850 5852 5855
5824 5822 5819 5817 5815 5813 5810 5808 5806 5804 5802 5800 5798 5797 5795 5795 5794 5793 5793 5793 5794 5795 5796 5798 5800 5802 5804 5807 5810 5813 5816 5819 5822 5825 5828 5831 5834 5837 5839 5842 5844 5847 5849
5822 5820 5818 5816 5814 5811 5809 5807 5805 5803 5801 5799 5797 5796 5794 5793 5792 5792 5791 5791 5791 5792 5793 5795 5797 5799 5801 5803 5806 5809 5811 5814 5817 5820 5823 5826 5828 5831 5833 5836 5838 5840 5843
5820 5818 5816 5814 5812 5810 5808 5806 5804 5802 5800 5798 5796 5795 5793 5792 5791 5790 5789 5789 5789 5789 5790 5792 5793 5795 5797 5799 5801 5804 5806 5809 5812 5814 5817 5820 5823 5825 5827 5830 5832 5834 5836
5817 5815 5813 5811 5810 5808 5806 5804 5802 5800 5798 5796 5795 5793 5791 5790 5789 5788 5787 5787 5786 5787 5787 5788 5790 5791 5793 5795 5797 5799 5802 5804 5806 5809 5811 5814 5816 5819 5821 5823 5825 5827 5829
5813 5812 5810 5808 5807 5805 5803 5801 5799 5798 5796 5794 5793 5791 5789 5788 5787 5786 5785 5784 5784 5784 5784 5785 5786 5788 5789 5790 5792 5795 5797 5799 5801 5803 5805 5808 5810 5812 5814 5816 5818 5820 5821
5810 5808 5807 5805 5803 5802 5800 5798 5796 5794 5793 5791 5790 5788 5787 5785 5784 5783 5782 5781 5781 5781 5782 5782 5783 5784 5785 5786 5788 5790 5791 5793 5796 5798 5800 5802 5803 5805 5807 5809 5810 5812 5814
5805 5804 5802 5801 5799 5797 5796 5794 5792 5790 5789 5788 5786 5785 5783 5782 5781 5780 5779 5778 5778 5778 5778 5779 5779 5780 5781 5782 5783 5785 5786 5788 5790 5791 5793 5795 5797 5798 5800 5802 5803 5805 5806
5799 5798 5797 5795 5794 5792 5791 5789 5787 5786 5784 5783 5781 5780 5779 5778 5777 5776 5775 5774 5774 5774 5774 5774 5775 5776 5776 5777 5778 5780 5781 5783 5784 5786 5787 5789 5790 5792 5793 5794 5796 5797 5799
5793 5791 5790 5789 5787 5786 5784 5783 5781 5780 5778 5777 5776 5775 5774 5773 5772 5771 5770 5770 5770 5770 5770 5770 5770 5771 5771 5772 5773 5775 5776 5777 5778 5779 5781 5782 5783 5784 5786 5787 5788 5789 5791
5785 5784 5782 5781 5780 5778 5777 5775 5773 5772 5771 5770 5769 5768 5767 5766 5766 5765 5765 5765 5765 5765 5765 5765 5765 5766 5766 5767 5768 5769 5770 5771 5772 5773 5774 5775 5776 5777 5779 5780 5781 5782 5783
Wind_Speed
14 14 15 15 15 15 15 14 14 15 15 15 15 15 14 15 15 16 16 18 18 18 17 17 16 16 14 14 13 12 11 10 11 13 13 14 15 16 16 16 15 14 15
15 15 16 16 16 16 15 15 15 15 14 15 15 15 14 15 15 16 16 17 18 19 18 18 17 17 16 15 14 13 13 12 11 12 12 14 16 16 16 16 16 15 15
16 16 17 17 16 16 16 15 15 15 14 14 14 14 14 15 15 16 17 17 18 19 19 19 19 18 17 16 15 15 14 14 13 13 13 13 16 16 16 16 17 17 16
17 17 17 17 17 16 16 15 14 14 13 13 13 13 14 14 15 16 17 18 18 19 20 20 20 19 19 18 17 16 15 15 14 13 13 14 16 17 16 16 16 16 16
17 17 17 17 17 16 16 14 14 13 12 12 12 12 13 14 14 16 17 18 18 19 20 21 21 21 20 19 18 17 17 16 15 14 14 15 16 16 16 15 16 17 17
18 18 18 17 17 16 15 14 13 12 11 10 10 11 12 12 14 16 17 18 18 18 19 21 21 22 21 21 20 19 19 18 16 15 15 15 16 16 16 16 16 17 17
18 18 18 17 17 17 16 14 13 12 11 10 9 10 11 11 12 14 16 17 18 18 19 21 21 22 22 22 21 21 21 20 19 17 16 16 16 16 17 17 17 17 17
18 18 18 17 17 17 16 15 14 12 10 9 8 9 9 10 11 12 14 16 17 18 19 20 22 21 22 22 21 22 22 21 20 19 18 17 17 16 16 16 16 16 16
18 18 18 17 17 17 16 15 14 12 10 9 8 7 8 9 10 11 12 15 17 18 19 20 22 22 22 23 22 22 23 22 22 20 19 19 18 17 16 16 16 17 17
18 17 17 17 17 17 17 15 13 12 10 9 8 7 7 7 9 10 11 14 16 17 19 20 21 21 22 23 23 22 23 23 23 21 20 20 19 18 18 18 18 18 18
17 17 17 17 16 16 16 15 13 12 10 9 8 7 7 7 7 9 10 12 14 15 17 20 21 21 22 22 22 22 23 24 24 23 22 21 21 20 19 19 20 20 20
17 17 17 16 16 16 16 15 13 12 10 9 8 7 7 6 7 8 9 11 12 14 16 18 20 21 21 22 22 22 23 24 24 24 23 21 21 22 21 21 20 20 21
16 17 17 16 16 15 15 14 13 12 10 9 9 8 7 7 7 7 8 10 11 13 15 16 18 19 20 22 22 22 21 23 24 24 24 23 22 22 22 22 21 21 21
16 16 16 16 15 15 14 14 14 13 11 10 9 8 8 7 7 7 8 9 10 13 14 15 17 18 20 21 21 21 22 22 23 23 23 23 23 23 22 22 22 22 22
16 16 16 15 15 15 14 14 14 13 12 11 10 9 8 8 8 8 8 9 10 12 14 15 16 17 19 21 22 22 22 22 22 23 24 24 24 23 23 23 23 23 23
16 16 16 15 15 15 14 14 14 13 13 12 11 10 9 9 8 8 8 8 9 10 13 15 16 17 18 20 21 21 22 23 22 23 24 24 24 24 25 25 24 24 24
15 16 16 15 15 15 15 14 14 14 13 12 11 10 10 9 9 8 8 8 9 10 11 14 15 16 18 20 20 21 22 22 23 23 24 24 24 25 25 25 25 25 25
16 15 15 15 15 15 15 15 14 14 13 13 12 11 10 9 9 9 8 8 9 10 11 12 14 16 18 19 19 21 22 22 24 24 24 24 24 25 25 25 26 26 26
16 16 15 15 15 15 15 15 14 14 13 13 13 12 11 10 9 9 8 8 9 10 11 12 14 15 17 19 19 20 21 22 23 24 25 25 25 26 26 26 27 26 26
17 16 16 16 16 16 16 15 15 14 14 13 13 13 12 11 11 10 9 9 9 10 11 12 14 15 16 18 19 20 20 21 22 24 25 26 26 26 26 27 27 28 27
17 17 17 17 17 17 16 16 16 15 15 14 14 13 12 12 12 11 11 10 10 10 11 12 14 15 16 17 18 19 20 21 22 23 24 24 25 26 27 27 27 28 28
19 19 19 19 18 18 18 18 17 17 16 16 15 14 13 13 13 12 12 11 11 11 11 12 14 15 15 17 17 18 19 20 21 22 23 24 25 26 27 27 27 27 27
21 21 20 20 20 20 20 20 19 18 18 17 17 16 15 15 14 14 14 13 12 12 12 13 13 14 15 16 17 18 19 19 20 21 22 23 24 25 26 26 27 27 26
23 23 23 22 22 22 22 22 21 21 20 19 19 18 17 17 16 16 15 14 14 14 14 14 14 15 15 16 16 17 19 20 21 22 22 23 23 24 24 25 26 26 27
26 25 25 25 25 24 24 24 24 24 23 22 21 21 20 19 19 18 17 16 16 16 16 15 16 16 17 17 17 18 19 20 21 22 22 22 23 24 25 25 25 25 26
29 29 28 27 27 27 27 26 26 25 25 24 24 23 22 21 21 21 20 19 19 18 18 18 18 18 18 19 19 19 20 21 21 22 23 24 24 24 24 25 25 25 26
Wind_Direction
334 330 327 324 320 317 312 307 300 294 287 280 274 269 264 256 251 247 240 234 228 228 228 228 227 225 223 221 220 216 212 206 196 188 190 191 189 189 189 188 183 182 183
338 335 331 327 323 319 315 309 302 296 289 283 276 269 263 259 252 246 239 234 229 228 226 225 224 223 221 220 217 213 213 210 203 195 192 194 194 191 191 189 186 187 188
340 337 333 329 326 322 318 312 306 299 292 284 276 270 263 257 251 246 240 235 230 228 225 225 224 221 221 221 219 215 214 213 209 200 196 196 197 193 191 192 191 193 195
341 339 336 333 329 325 323 318 312 304 295 287 277 271 265 256 249 243 241 237 232 229 227 225 223 221 221 221 220 215 215 213 212 206 201 199 195 195 195 196 196 197 199
342 340 338 336 333 329 327 323 317 310 300 290 279 272 266 258 250 243 240 236 233 231 228 225 222 221 221 221 221 218 216 215 213 212 206 202 198 196 199 203 204 203 202
343 342 340 339 338 335 332 329 324 317 306 295 284 274 267 260 252 245 239 235 233 231 229 226 223 222 222 223 224 220 219 218 215 213 212 208 204 203 205 207 207 209 209
343 343 343 343 343 341 337 332 328 322 313 302 291 279 270 262 254 248 241 235 233 232 230 227 224 223 223 224 224 222 220 220 218 217 215 213 210 208 210 211 211 214 215
344 344 345 344 344 343 342 338 334 328 318 308 298 286 273 263 257 251 242 235 233 231 230 229 226 225 223 224 226 224 220 220 221 220 218 217 215 214 214 215 212 213 216
345 345 345 345 345 346 346 343 339 335 327 317 307 298 284 268 260 254 244 236 233 232 230 229 227 227 225 224 226 226 224 221 222 221 219 216 216 218 216 215 214 217 219
345 345 345 345 345 345 346 346 342 339 333 325 315 304 291 276 261 256 248 239 236 232 229 228 228 228 227 225 226 227 226 225 223 223 221 219 218 219 221 220 221 220 222
345 346 346 346 347 347 346 347 346 343 338 331 323 313 302 282 266 259 250 243 237 235 232 229 227 229 228 227 227 227 227 226 224 224 224 224 222 222 223 225 226 225 226
345 346 346 347 348 350 350 350 348 346 344 339 332 323 314 297 278 268 254 246 240 236 234 231 229 228 227 227 228 228 228 225 223 223 225 226 226 227 227 228 230 232 233
344 346 347 348 349 350 352 353 352 350 345 341 338 331 323 312 291 279 264 251 243 237 234 233 228 227 229 229 229 230 227 226 225 225 227 229 229 229 230 231 233 236 237
342 345 346 347 349 350 351 352 352 350 346 341 336 329 322 314 302 285 273 259 248 241 237 235 230 230 231 228 228 229 229 227 226 227 229 230 232 232 233 233 235 238 240
340 342 344 345 347 348 348 348 349 348 344 338 332 327 321 314 305 290 281 268 255 246 239 235 233 232 230 229 228 230 231 228 228 230 232 232 233 234 236 236 237 239 241
336 339 342 343 344 344 344 344 345 344 342 338 332 326 321 313 303 291 281 273 260 250 243 239 237 236 232 229 227 229 230 230 232 232 233 234 235 235 237 240 242 243 244
332 335 337 339 341 341 340 340 340 341 339 336 332 327 322 316 306 297 286 274 264 255 249 243 239 236 234 232 232 232 231 232 234 235 236 237 238 238 239 242 243 244 247
326 329 332 334 335 336 336 336 336 336 335 333 330 326 321 317 309 303 293 279 270 260 252 247 241 238 235 235 236 235 235 236 236 237 238 240 241 242 242 243 245 247 249
323 324 326 329 329 329 331 332 333 334 331 328 326 324 322 315 308 304 298 287 276 265 255 249 246 243 239 236 238 238 239 241 241 240 240 241 243 246 245 246 247 249 251
319 320 322 324 324 324 323 323 325 327 327 325 323 321 318 313 308 303 297 289 281 273 261 254 251 247 244 239 239 240 241 244 244 243 243 243 244 247 249 249 250 250 252
312 314 316 317 319 319 319 318 318 318 320 319 319 318 315 309 303 299 295 288 282 276 267 259 253 249 245 241 240 241 242 244 245 245 245 245 245 248 250 250 251 253 254
307 308 309 310 312 313 313 313 313 312 312 312 312 312 310 306 302 297 294 286 280 273 269 265 258 252 249 245 243 244 243 244 245 246 246 248 249 249 251 251 252 255 255
304 303 303 304 305 307 307 307 307 307 307 307 306 305 303 300 298 294 292 284 277 272 269 266 260 254 251 248 245 245 246 247 248 249 250 250 251 252 252 252 254 256 256
300 299 298 298 299 300 301 301 301 301 301 302 301 300 297 294 292 289 288 283 278 274 269 266 262 258 253 250 248 249 249 248 250 250 251 253 253 253 253 255 256 255 255
296 296 295 294 294 295 295 295 295 296 296 296 296 295 292 289 286 284 283 279 276 274 270 266 263 261 257 254 253 252 252 252 253 252 252 254 256 256 255 255 256 255 256
293 293 292 292 292 292 292 292 292 291 291 291 290 289 287 285 282 280 278 277 274 272 270 268 265 264 262 259 256 256 256 256 256 256 254 256 258 258 256 254 255 257 258